Muncie, IN

1:51 AM EST on January 19, 2018 (GMT -0500)
Delaware County-Johnson

Weather History for KMIE - March, 2015

Change the Weather History Date:

Thursday, March 19, 2015

  Actual Average Record
Temperature  
Mean Temperature 42 °F 41 °F  
Max Temperature 49 °F 50 °F 81 °F (2012)
Min Temperature 34 °F 31 °F 10 °F (1965)
Degree Days  
Heating Degree Days 23 24  
Month to date heating degree days 544 526  
Since 1 July heating degree days 5409 4909  
Cooling Degree Days 0 0  
Month to date cooling degree days 0 0  
Year to date cooling degree days 0 0  
Moisture  
Dew Point 26 °F    
Average Humidity 56    
Maximum Humidity 70    
Minimum Humidity 42    
Precipitation  
Precipitation T in 0.09 in 1.44 in (1986)
Month to date precipitation 1.72 1.69  
Year to date precipitation 4.66 6.23  
Sea Level Pressure  
Sea Level Pressure 30.20 in    
Wind  
Wind Speed 10 mph (East)    
Max Wind Speed 21 mph    
Max Gust Speed 25 mph    
Visibility 10 miles    
Events      
T = Trace of Precipitation, MM = Missing Value Source: NWS Daily Summary

Daily Weather History Graph

Daily Weather History Graph

Search for Another Location

Airport or City:

Trip Planner

Search our weather history database for the weather conditions in past years. The results will help you decide how hot, cold, wet, or windy it might be!

Date:

Astronomy

Mar. 19, 2015 Rise Set
Actual Time 7:47 AM EDT 7:52 PM EDT
Civil Twilight 7:19 AM EDT 8:19 PM EDT
Nautical Twilight 6:48 AM EDT 8:51 PM EDT
Astronomical Twilight 6:16 AM EDT 9:23 PM EDT
Moon 7:10 AM EDT 7:19 PM EDT
Length of Visible Light 12h 59m
Length of Day
12h 05m
Waning Crescent, 1% of the Moon is Illuminated
Mar 19
Waning Crescent
Mar 20
New
Mar 27
First Quarter
Apr 4
Full
Apr 11
Last Quarter

Hourly Weather History & Observations

Time (EDT) Temp. Windchill Dew Point Humidity Pressure Visibility Wind Dir Wind Speed Gust Speed Precip Events Conditions
12:53 AM 37.9 °F 34.4 °F 24.1 °F 57% 30.25 in 10.0 mi NE 4.6 mph - N/A   Mostly Cloudy
1:53 AM 39.0 °F 34.8 °F 24.1 °F 55% 30.24 in 10.0 mi ENE 5.8 mph - N/A   Scattered Clouds
2:53 AM 37.9 °F 33.5 °F 26.1 °F 62% 30.25 in 10.0 mi East 5.8 mph - N/A   Clear
3:53 AM 37.9 °F 33.5 °F 25.0 °F 60% 30.25 in 10.0 mi East 5.8 mph - N/A   Mostly Cloudy
4:53 AM 37.9 °F 32.7 °F 24.1 °F 57% 30.24 in 10.0 mi ENE 6.9 mph - N/A   Partly Cloudy
5:53 AM 37.0 °F 31.6 °F 24.1 °F 59% 30.24 in 10.0 mi East 6.9 mph - N/A   Clear
6:53 AM 36.0 °F 29.6 °F 23.0 °F 59% 30.25 in 10.0 mi ENE 8.1 mph - N/A   Clear
7:53 AM 35.1 °F 28.6 °F 24.1 °F 64% 30.26 in 10.0 mi ENE 8.1 mph - N/A   Partly Cloudy
8:53 AM 36.0 °F 28.0 °F 24.1 °F 62% 30.26 in 10.0 mi East 11.5 mph - N/A   Clear
9:53 AM 37.9 °F 29.2 °F 23.0 °F 55% 30.27 in 10.0 mi East 15.0 mph - N/A   Clear
10:53 AM 41.0 °F 32.8 °F 24.1 °F 51% 30.27 in 10.0 mi East 16.1 mph - N/A   Clear
11:53 AM 42.1 °F 35.2 °F 25.0 °F 51% 30.24 in 10.0 mi East 12.7 mph - N/A   Clear
12:53 PM 44.1 °F 36.5 °F 25.0 °F 47% 30.23 in 10.0 mi East 17.3 mph - N/A   Clear
1:53 PM 46.9 °F - 26.1 °F 44% 30.20 in 10.0 mi East 13.8 mph 23.0 mph N/A   Clear
2:53 PM 48.0 °F - 27.0 °F 44% 30.17 in 10.0 mi East 10.4 mph - N/A   Clear
3:53 PM 48.0 °F - 27.0 °F 44% 30.14 in 10.0 mi East 12.7 mph - N/A   Scattered Clouds
4:53 PM 48.0 °F - 28.0 °F 46% 30.13 in 10.0 mi East 13.8 mph - N/A   Overcast
5:53 PM 48.0 °F - 28.0 °F 46% 30.12 in 10.0 mi East 11.5 mph - N/A   Overcast
6:53 PM 48.0 °F - 28.0 °F 46% 30.11 in 10.0 mi East 12.7 mph - N/A   Overcast
7:53 PM 46.0 °F 42.5 °F 28.9 °F 51% 30.11 in 10.0 mi East 6.9 mph - N/A   Overcast
8:53 PM 45.0 °F 41.8 °F 30.0 °F 56% 30.11 in 10.0 mi ESE 5.8 mph - N/A   Overcast
9:53 PM 45.0 °F - 28.9 °F 53% 30.12 in 10.0 mi Calm Calm - N/A   Overcast
10:53 PM 43.0 °F 38.2 °F 28.9 °F 58% 30.11 in 10.0 mi NE 8.1 mph - N/A   Overcast
11:53 PM 39.9 °F 33.9 °F 30.9 °F 70% 30.11 in 10.0 mi East 9.2 mph - N/A   Overcast